TimeHST,TemperatureF,Dew PointF,Humidity,Sea Level PressureIn,VisibilityMPH,Wind Direction,Wind SpeedMPH,Gust SpeedMPH,PrecipitationIn,Events,Conditions,WindDirDegrees,DateUTC
12:54 AM,71.1,57.9,63,30.07,10.0,NE,4.6,-,N/A,,Overcast,40,2011-12-30 10:54:00
1:54 AM,69.1,57.9,68,30.06,10.0,ENE,8.1,-,N/A,,Clear,60,2011-12-30 11:54:00
2:54 AM,64.0,55.0,73,30.05,10.0,SE,4.6,-,N/A,,Clear,140,2011-12-30 12:54:00
3:54 AM,66.9,57.0,70,30.04,10.0,ENE,10.4,-,N/A,,Clear,60,2011-12-30 13:54:00
4:54 AM,62.1,54.0,75,30.05,10.0,South,5.8,-,N/A,,Scattered Clouds,170,2011-12-30 14:54:00
5:54 AM,61.0,52.0,72,30.06,10.0,SE,5.8,-,N/A,,Clear,140,2011-12-30 15:54:00
6:54 AM,61.0,53.1,75,30.07,10.0,SE,5.8,-,N/A,,Clear,140,2011-12-30 16:54:00
7:54 AM,62.1,54.0,75,30.09,10.0,South,3.5,-,N/A,,Partly Cloudy,170,2011-12-30 17:54:00
8:54 AM,71.1,57.0,61,30.12,10.0,ESE,3.5,-,N/A,,Clear,120,2011-12-30 18:54:00
9:54 AM,75.9,55.9,50,30.13,10.0,NW,6.9,-,N/A,,Partly Cloudy,320,2011-12-30 19:54:00
10:54 AM,81.0,59.0,47,30.11,10.0,NE,6.9,-,N/A,,Partly Cloudy,40,2011-12-30 20:54:00
11:54 AM,80.1,61.0,52,30.07,10.0,East,10.4,18.4,N/A,,Scattered Clouds,80,2011-12-30 21:54:00
12:54 PM,80.1,61.0,52,30.04,10.0,East,11.5,21.9,N/A,,Scattered Clouds,80,2011-12-30 22:54:00
1:54 PM,81.0,59.0,47,30.01,10.0,South,8.1,-,N/A,,Mostly Cloudy,170,2011-12-30 23:54:00
2:54 PM,80.1,59.0,48,30.01,10.0,NE,15.0,18.4,N/A,,Scattered Clouds,50,2011-12-31 00:54:00
3:54 PM,77.0,62.1,60,30.02,10.0,ENE,8.1,-,N/A,,Mostly Cloudy,70,2011-12-31 01:54:00
4:54 PM,75.9,63.0,64,30.04,10.0,ENE,8.1,-,N/A,,Mostly Cloudy,60,2011-12-31 02:54:00
5:54 PM,73.9,62.1,66,30.05,10.0,NE,3.5,-,N/A,,Scattered Clouds,50,2011-12-31 03:54:00
6:54 PM,73.0,62.1,68,30.06,10.0,NE,5.8,-,N/A,,Partly Cloudy,50,2011-12-31 04:54:00
7:54 PM,66.0,61.0,84,30.06,10.0,Calm,Calm,-,N/A,,Scattered Clouds,0,2011-12-31 05:54:00
8:54 PM,66.9,60.1,79,30.07,10.0,Calm,Calm,-,N/A,,Partly Cloudy,0,2011-12-31 06:54:00
9:54 PM,66.0,59.0,78,30.07,10.0,Calm,Calm,-,N/A,,Clear,0,2011-12-31 07:54:00
10:54 PM,64.0,57.9,80,30.06,10.0,SSE,4.6,-,N/A,,Clear,160,2011-12-31 08:54:00
11:54 PM,63.0,57.9,84,30.06,10.0,SE,6.9,-,N/A,,Clear,130,2011-12-31 09:54:00